Simultaneous Nadir Overpasses (SNOs) Predictions

Prediction of SNOs between METOP-B and TERRA Satellite Orbit:

Table of predicted SNOs for the next 14.0 days since TLE Epoch: 3/18/2023
Index Date (METOP-B) Time (METOP-B) Lat,Lon (METOP-B) SZA (METOP-B ) Date (TERRA) Time (TERRA) Lat,Lon (TERRA) SZA (TERRA ) Distance(km) Time Diff (sec)
1 03/19/2023 20:25:47 80.94, -91.50 82.77 03/19/2023 20:26:09 80.94, -91.66 82.77 2.83 22
2 03/19/2023 21:16:26 -80.97, 76.56 97.15 03/19/2023 21:15:31 -80.97, 76.46 97.18 1.70 55
3 03/22/2023 11:47:44 -79.32,-160.69 101.04 03/22/2023 11:48:57 -78.93,-158.60 101.29 61.45 73
4 03/22/2023 12:37:25 80.91, 25.10 81.68 03/22/2023 12:37:22 80.92, 25.25 81.69 2.68 3
5 03/25/2023 03:58:21 -80.89, -25.50 99.40 03/25/2023 03:59:12 -80.89, -25.58 99.39 1.65 51
6 03/25/2023 04:48:58 80.96, 143.06 80.75 03/25/2023 04:48:31 80.96, 142.94 80.73 2.11 27
7 03/27/2023 20:09:56 -80.92, 92.03 100.37 03/27/2023 20:10:22 -80.91, 91.85 100.38 3.17 26
8 03/27/2023 21:00:35 80.94,-100.14 79.69 03/27/2023 20:59:42 80.95, -99.98 79.69 3.01 53



Historial Predications of SNOs between METOP-B and TERRA
